AMAZONAS 5

Last updated on Wed Oct 29 2025 00:02:49 GMT+0000 (Coordinated Universal Time)

1 42934U 17053A 25301.32513606 -.00000272 00000+0 00000+0 0 9995 2 42934 0.0364 317.2782 0003357 290.7964 204.9309 1.00270580 29722
UTC large
Height (km)
Speed (km/s)
/
Latitude / Longitude
Inclination (degrees)
Orbital Period (minutes)
Azimuth
Elevation
Range (km)
Doppler Factor

Next 0 passes for location: London (51.5072 / 0.1276)

Sorry there are no passes over London.